TITAN 3C TRANSTAGE DEB, 5991

Orbit data source: Space-Track

TITAN 3C TRANSTAGE DEB, 5991 is space debris in HEO originally from a launch on Tue, 21 Dec 1965 UTC launched from the Air Force Eastern Test Range (AFETR). Debris objects in space refer to the collection of defunct objects orbiting the Earth. Examples of debris include non-operational satellites, rocket bodies, and fragments generated from explosions, collisions, or faulty payload assembly.

Loading next visibility...
Identifier
5991, 1965-108R
Orbit
HEO
Country
Flag of USUS
Related business
Manufacturer
Unknown
Mission
Spacecraft
Bus & Motor
Unknown
Mass
Unknown
Launch date (UTC)
1965-12-21 (60 years ago)
Launch vehicle
Unknown
Launch site
Air Force Eastern Test Range (AFETR)
Object type
Payload
Rocket body
Debris
Shape & HBR
Unknown shape, 0.3 m
Radar Cross Section
Medium (>0.1 m² and <1 m²)

Expand to show TLE details & history
Last TLE update: 3 days ago

TLE from 3 days ago
0 TITAN 3C TRANSTAGE DEB
1 05991U 65108R   25288.47753720 -.00000130  00000-0  00000-0 0  9999
2 05991  27.9863 352.5445 6544407  75.7714 319.2688  2.63547137110951
Epoch: 2025-10-15T11:27Z
TLE epoch observation values (Epoch: 2025-10-15T11:27:39.214Z)
Latitude
-19.31114°
Longitude
115.24816°
Altitude
12,543.138 km
Speed
4.912 km/s
True Right ascension
20h 45m 39s
True Declination
-19° 16' 15"
Sunlit
Object was in daylight at epoch
Visualization orbit readout
Latitude
Unknown
Longitude
Unknown
Altitude
Unknown
Speed
Unknown
Apparent Right ascension
Unknown
Apparent Declination
Unknown
Sunlit
N/A
Visualization observer readout
Local Sidereal Time
04:34:42
Azimuth
Unknown
Elevation
Unknown
Doppler factor
Unknown
Orbital elements
Apogee altitude
30,255.067 km
Perigee altitude
1,273.358 km
Semi-major axis
22,142.349 km
Eccentricity
0.65444
Inclination
27.9863°
RAAN
352.5445°
Arg. of periapsis
75.7714°
True anomaly
239.48303°
Mean anomaly
319.2688°
Eccentric anomaly
282.68772°
Mean motion
0.65873 °/min
Orbital period
546.51 mins
BSTAR
0

Documentation

Showing up to 5 results
|